TimeCDT,TemperatureF,Dew PointF,Humidity,Sea Level PressureIn,VisibilityMPH,Wind Direction,Wind SpeedMPH,Gust SpeedMPH,PrecipitationIn,Events,Conditions,WindDirDegrees,DateUTC
12:53 AM,60.1,32.0,35,29.69,10.0,West,11.5,-,N/A,,Clear,260,2012-10-22 05:53:00
1:53 AM,57.0,32.0,39,29.70,10.0,SW,9.2,-,N/A,,Clear,230,2012-10-22 06:53:00
2:53 AM,60.1,33.1,36,29.69,9.0,West,10.4,-,N/A,,Clear,270,2012-10-22 07:53:00
3:53 AM,52.0,33.1,49,29.72,10.0,WNW,3.5,-,N/A,,Clear,290,2012-10-22 08:53:00
4:53 AM,52.0,33.1,49,29.73,10.0,Calm,Calm,-,N/A,,Clear,0,2012-10-22 09:53:00
5:53 AM,46.0,30.9,56,29.75,10.0,SW,4.6,-,N/A,,Clear,230,2012-10-22 10:53:00
6:53 AM,48.0,30.9,52,29.76,10.0,WNW,3.5,-,N/A,,Clear,300,2012-10-22 11:53:00
7:53 AM,48.0,32.0,54,29.80,10.0,Calm,Calm,-,N/A,,Clear,0,2012-10-22 12:53:00
8:53 AM,51.1,32.0,48,29.81,10.0,North,6.9,-,N/A,,Clear,10,2012-10-22 13:53:00
9:53 AM,55.0,39.9,57,29.82,10.0,ENE,6.9,-,N/A,,Clear,60,2012-10-22 14:53:00
10:53 AM,61.0,42.1,50,29.83,10.0,ENE,9.2,-,N/A,,Clear,70,2012-10-22 15:53:00
11:53 AM,63.0,42.1,46,29.83,10.0,East,8.1,-,N/A,,Clear,90,2012-10-22 16:53:00
12:53 PM,68.0,41.0,37,29.81,10.0,NE,5.8,-,N/A,,Clear,50,2012-10-22 17:53:00
1:53 PM,72.0,39.9,31,29.77,10.0,ESE,6.9,-,N/A,,Clear,110,2012-10-22 18:53:00
2:53 PM,75.0,37.9,26,29.73,10.0,SE,6.9,-,N/A,,Clear,130,2012-10-22 19:53:00
3:53 PM,79.0,33.1,19,29.72,10.0,SSW,8.1,-,N/A,,Clear,210,2012-10-22 20:53:00
4:53 PM,82.9,25.0,12,29.68,10.0,SW,12.7,20.7,N/A,,Clear,230,2012-10-22 21:53:00
5:53 PM,82.0,24.1,12,29.70,10.0,SW,13.8,-,N/A,,Clear,230,2012-10-22 22:53:00
6:53 PM,75.9,23.0,14,29.71,10.0,SW,13.8,-,N/A,,Clear,220,2012-10-22 23:53:00
7:53 PM,63.0,25.0,24,29.75,10.0,SSW,8.1,-,N/A,,Clear,210,2012-10-23 00:53:00
8:53 PM,59.0,26.1,28,29.76,10.0,SSW,11.5,-,N/A,,Clear,210,2012-10-23 01:53:00
9:53 PM,54.0,27.0,35,29.77,10.0,SSW,10.4,-,N/A,,Clear,200,2012-10-23 02:53:00
10:53 PM,55.9,28.0,34,29.75,10.0,South,10.4,-,N/A,,Clear,180,2012-10-23 03:53:00
11:53 PM,59.0,30.0,33,29.74,10.0,SSW,16.1,-,N/A,,Clear,210,2012-10-23 04:53:00